FW0896 Weather Reports


time (UTC)temp
F
wind
direction
speed
knots
gust
knots
rain 1hr
in
rain 24hr
in
rain mn
in
humidity
%
barometer
mb
20260903034545 73 99 0.0 0.0 0.00 1.01 1.01 93 1010.0
20260903033044 74 95 0.0 1.7 0.00 1.01 1.01 92 1010.1
20260903031544 74 91 0.0 0.0 0.00 1.01 1.01 92 1010.1
20260903030044 74 85 0.0 1.7 0.00 1.01 1.01 91 1010.2
20260903024543 75 143 0.0 1.7 0.00 1.01 1.01 90 1010.1
20260903023043 75 144 0.0 0.9 0.00 1.01 1.01 89 1010.2
20260903021550 76 146 0.0 0.9 0.00 1.01 1.01 89 1010.0
20260903020042 76 146 0.0 1.7 0.00 1.01 1.01 88 1009.9
20260903014544 77 149 0.0 1.7 0.00 1.01 1.01 87 1009.7
20260903013040 78 156 0.0 0.9 0.00 1.01 1.01 86 1009.8
20260903011540 78 172 0.0 0.9 0.00 1.01 1.01 85 1009.7
20260903010040 79 176 0.0 0.9 0.00 1.01 1.01 83 1009.5
20260903004539 80 176 0.0 0.9 0.00 1.01 1.01 82 1009.6
20260903003038 81 177 0.0 0.9 0.00 1.01 1.01 81 1009.7
20260903001538 81 178 0.0 0.9 0.00 1.01 1.01 81 1009.8
20260903000038 82 179 0.0 0.9 0.00 1.01 1.01 79 1009.7
20260902234536 83 177 0.0 0.0 0.00 1.01 1.01 79 1009.7
20260902233036 85 179 0.0 1.7 0.00 1.01 1.01 74 1009.9
20260902231535 85 176 0.0 1.7 0.00 1.01 1.01 73 1009.7
20260902230034 86 169 0.0 1.7 0.00 1.01 1.01 71 1009.7
20260902224541 86 178 0.0 2.6 0.00 1.01 1.01 70 1009.8
20260902223033 86 175 0.0 2.6 0.00 1.01 1.01 70 1009.8
20260902221537 86 179 0.9 6.1 0.00 1.01 1.01 67 1009.9
20260902220042 87 187 2.6 7.0 0.00 1.01 1.01 67 1010.0
20260902214530 88 173 1.7 5.2 0.00 1.07 1.01 68 1010.1
20260902213028 89 178 0.0 1.7 0.00 1.07 1.01 66 1010.1
20260902211525 88 180 0.0 4.3 0.00 1.07 1.01 66 1010.2
20260902210125 87 239 3.5 7.0 0.00 1.07 1.01 66 1010.3
20260902204529 86 240 3.5 7.0 0.00 1.08 1.01 66 1010.4
20260902203023 87 221 3.5 6.1 0.00 1.08 1.01 64 1010.3
20260902201524 87 235 1.7 6.1 0.00 1.08 1.01 66 1010.6
20260902200021 86 214 2.6 6.1 0.00 1.08 1.01 66 1010.6
20260902194519 87 217 1.7 5.2 0.00 1.08 1.01 64 1010.9
20260902193020 87 196 2.6 7.8 0.00 1.08 1.01 66 1011.0
20260902191519 87 234 1.7 4.3 0.00 1.08 1.01 64 1011.1
20260902190017 87 236 0.9 4.3 0.00 1.08 1.01 64 1011.1
20260902184514 86 245 0.9 5.2 0.00 1.08 1.01 62 1011.1
20260902183011 86 239 1.7 4.3 0.00 1.08 1.01 67 1011.5
20260902181511 85 231 2.6 5.2 0.00 1.08 1.01 69 1011.6
20260902180008 84 202 1.7 3.5 0.00 1.08 1.01 71 1011.4
20260902174505 82 240 1.7 3.5 0.00 1.08 1.01 77 1011.9
20260902173005 83 235 1.7 3.5 0.00 1.08 1.01 73 1011.9
20260902171502 83 224 2.6 4.3 0.00 1.08 1.01 71 1011.8
20260902170108 83 255 1.7 5.2 0.00 1.08 1.01 77 1011.9
20260902164558 82 245 2.6 6.1 0.00 1.08 1.01 77 1012.2
20260902163056 81 246 4.3 10.4 0.00 1.08 1.01 75 1012.2
20260902161554 80 229 1.7 9.6 0.00 1.08 1.01 78 1012.2
20260902160053 80 217 2.6 8.7 0.00 1.08 1.01 79 1012.1
20260902154547 79 207 1.7 7.0 0.00 1.08 1.01 81 1011.9
20260902153046 79 195 2.6 7.8 0.00 1.08 1.01 82 1012.0
20260902151547 78 174 1.7 7.0 0.00 1.08 1.01 82 1012.0
20260902150039 76 211 2.6 5.2 0.00 1.08 1.01 83 1011.4
20260902144545 76 228 0.9 5.2 0.00 1.08 1.01 84 1011.4
20260902143034 75 215 2.6 7.0 0.00 1.08 1.01 86 1011.5
20260902141527 73 195 0.9 4.3 0.00 1.08 1.01 88 1011.6
20260902140026 72 197 1.7 4.3 0.00 1.08 1.01 92 1011.8
20260902134529 70 187 0.9 4.3 0.00 1.08 1.01 94 1011.7
20260902133025 68 162 0.9 2.6 0.00 1.08 1.01 97 1011.6
20260902131525 66 169 0.9 2.6 0.00 1.08 1.01 98 1011.4
20260902130034 66 131 0.9 1.7 0.00 1.08 1.01 97 1011.3
20260902124526 66 127 0.9 2.6 0.00 1.08 1.01 97 1011.8
20260902123022 65 126 0.9 1.7 0.00 1.08 1.01 97 1011.9
20260902121521 65 126 0.9 1.7 0.00 1.08 1.01 97 1011.7
20260902120021 65 127 0.0 1.7 0.00 1.08 1.01 97 1011.7
20260902114520 65 164 0.9 1.7 0.00 1.08 1.01 97 1011.9
20260902113018 65 85 0.9 3.5 0.00 1.08 1.01 97 1012.0
20260902111517 65 77 0.0 2.6 0.00 1.08 1.01 97 1011.7
20260902110017 65 30 2.6 3.5 0.00 1.08 1.01 97 1011.4
20260902104527 66 39 1.7 4.3 0.00 1.08 1.01 97 1011.4
20260902103017 66 27 3.5 6.1 0.00 1.08 1.01 97 1011.3
20260902101527 67 24 1.7 4.3 0.00 1.08 1.01 97 1011.5
20260902100014 66 80 2.6 6.1 0.00 1.08 1.01 98 1011.2
20260902094512 66 98 3.5 5.2 0.00 1.08 1.01 98 1012.0
20260902093012 67 330 0.9 4.3 0.00 1.08 1.01 98 1013.6
20260902091511 67 92 0.0 6.1 0.00 1.08 1.01 98 1013.5
20260902090010 67 260 5.2 12.2 0.00 1.08 1.01 98 1014.2
20260902084509 66 161 0.0 3.5 0.00 1.08 1.01 98 1012.3
20260902083009 67 168 1.7 5.2 0.00 1.08 1.01 98 1012.1
20260902081508 67 124 0.9 2.6 0.00 1.08 1.01 98 1012.0
20260902080008 67 101 2.6 5.2 0.00 1.08 1.01 98 1011.8
20260902074507 66 82 1.7 6.1 0.00 1.08 1.01 98 1011.3
20260902073006 66 73 3.5 9.6 0.00 1.08 1.01 98 1010.7
20260902071506 66 91 4.3 7.0 0.00 1.08 1.01 98 1011.0
20260902070006 66 74 2.6 7.0 0.07 1.08 1.01 98 1011.4
20260902064503 66 84 1.7 6.1 0.41 1.08 1.01 98 1012.3
20260902063002 66 31 4.3 8.7 0.67 1.08 1.01 97 1011.9
20260902061502 66 350 3.5 7.0 1.00 1.08 1.01 97 1012.5
20260902060113 66 335 3.5 9.6 0.94 1.01 0.94 96 1014.4
20260902054557 67 345 7.0 18.2 0.60 0.67 0.60 96 1014.8
20260902053102 67 312 9.6 18.2 0.34 0.41 0.34 95 1012.6
20260902051546 71 334 9.6 13.0 0.01 0.08 0.01 91 1012.7
20260902050037 73 352 2.6 4.3 0.00 0.07 0.00 87 1011.2
20260902044536 74 330 5.2 7.8 0.00 0.07 0.07 82 1011.9
20260902043036 73 282 1.7 4.3 0.00 0.07 0.07 83 1011.7
20260902041534 72 45 1.7 3.5 0.00 0.07 0.07 84 1011.4
20260902040033 72 40 2.6 6.1 0.00 0.07 0.07 84 1011.6